Time,TemperatureF,DewpointF,PressureIn,WindDirection,WindDirectionDegrees,WindSpeedMPH,WindSpeedGustMPH,Humidity,HourlyPrecipIn,Conditions,Clouds,dailyrainin,SoftwareType,DateUTC
2013-01-23 01:00:00,8.0,-10.0,30.12,West,280,7.0,19.0,47,-99.99,,,-99.99,,2013-01-23 06:00:00,
2013-01-23 01:23:00,8.0,-10.0,30.12,West,280,7.0,19.0,47,-99.99,,,-99.99,,2013-01-23 06:23:00,
2013-01-23 01:33:00,8.0,-10.0,30.12,West,280,7.0,19.0,47,-99.99,,,-99.99,,2013-01-23 06:33:00,
2013-01-23 01:43:00,8.0,-10.0,30.12,West,280,7.0,19.0,47,-99.99,,,-99.99,,2013-01-23 06:43:00,
2013-01-23 01:53:00,8.0,-10.0,30.12,West,280,7.0,19.0,47,-99.99,,,-99.99,,2013-01-23 06:53:00,
2013-01-23 02:00:00,8.0,-9.0,30.12,WNW,295,10.0,18.0,50,-99.99,,,-99.99,,2013-01-23 07:00:00,
2013-01-23 02:23:00,8.0,-9.0,30.12,WNW,295,10.0,18.0,50,-99.99,,,-99.99,,2013-01-23 07:23:00,
2013-01-23 02:33:00,8.0,-9.0,30.12,WNW,295,10.0,18.0,50,-99.99,,,-99.99,,2013-01-23 07:33:00,
2013-01-23 02:43:00,8.0,-9.0,30.12,WNW,295,10.0,18.0,50,-99.99,,,-99.99,,2013-01-23 07:43:00,
2013-01-23 02:53:00,8.0,-9.0,30.12,WNW,295,10.0,18.0,50,-99.99,,,-99.99,,2013-01-23 07:53:00,
2013-01-23 03:00:00,8.0,-9.0,30.12,WNW,299,8.0,16.0,52,-99.99,,,-99.99,,2013-01-23 08:00:00,
2013-01-23 03:23:00,8.0,-9.0,30.12,WNW,299,8.0,16.0,52,-99.99,,,-99.99,,2013-01-23 08:23:00,
2013-01-23 03:33:00,8.0,-9.0,30.12,WNW,299,8.0,16.0,52,-99.99,,,-99.99,,2013-01-23 08:33:00,
2013-01-23 03:43:00,8.0,-9.0,30.12,WNW,299,8.0,16.0,52,-99.99,,,-99.99,,2013-01-23 08:43:00,
2013-01-23 03:53:00,8.0,-9.0,30.12,WNW,299,8.0,16.0,52,-99.99,,,-99.99,,2013-01-23 08:53:00,
2013-01-23 04:00:00,8.0,-8.0,30.12,WNW,289,7.0,17.0,55,-99.99,,,-99.99,,2013-01-23 09:00:00,
2013-01-23 04:23:00,8.0,-8.0,30.12,WNW,289,7.0,17.0,55,-99.99,,,-99.99,,2013-01-23 09:23:00,
2013-01-23 04:33:00,8.0,-8.0,30.12,WNW,289,7.0,17.0,55,-99.99,,,-99.99,,2013-01-23 09:33:00,
2013-01-23 04:43:00,8.0,-8.0,30.12,WNW,289,7.0,17.0,55,-99.99,,,-99.99,,2013-01-23 09:43:00,
2013-01-23 04:53:00,8.0,-8.0,30.12,WNW,289,7.0,17.0,55,-99.99,,,-99.99,,2013-01-23 09:53:00,
2013-01-23 05:00:00,7.0,-7.0,30.12,WNW,285,9.0,15.0,57,-99.99,,,-99.99,,2013-01-23 10:00:00,
2013-01-23 05:23:00,7.0,-7.0,30.12,WNW,285,9.0,15.0,57,-99.99,,,-99.99,,2013-01-23 10:23:00,
2013-01-23 05:33:00,7.0,-7.0,30.12,WNW,285,9.0,15.0,57,-99.99,,,-99.99,,2013-01-23 10:33:00,
2013-01-23 05:43:00,7.0,-7.0,30.12,WNW,285,9.0,15.0,57,-99.99,,,-99.99,,2013-01-23 10:43:00,
2013-01-23 05:53:00,7.0,-7.0,30.12,WNW,285,9.0,15.0,57,-99.99,,,-99.99,,2013-01-23 10:53:00,
2013-01-23 06:00:00,7.0,-7.0,30.12,NW,306,8.0,16.0,59,-99.99,,,-99.99,,2013-01-23 11:00:00,
2013-01-23 06:23:00,7.0,-7.0,30.12,NW,306,8.0,16.0,59,-99.99,,,-99.99,,2013-01-23 11:23:00,
2013-01-23 06:34:00,7.0,-7.0,30.12,NW,306,8.0,16.0,59,-99.99,,,-99.99,,2013-01-23 11:34:00,
2013-01-23 06:43:00,7.0,-7.0,30.12,NW,306,8.0,16.0,59,-99.99,,,-99.99,,2013-01-23 11:43:00,
2013-01-23 06:53:00,7.0,-7.0,30.12,NW,306,8.0,16.0,59,-99.99,,,-99.99,,2013-01-23 11:53:00,
2013-01-23 07:00:00,7.0,-6.0,30.15,WNW,299,10.0,14.0,61,-99.99,,,-99.99,,2013-01-23 12:00:00,
2013-01-23 07:33:00,7.0,-6.0,30.15,WNW,299,10.0,14.0,61,-99.99,,,-99.99,,2013-01-23 12:33:00,
2013-01-23 07:43:00,7.0,-6.0,30.15,WNW,299,10.0,14.0,61,-99.99,,,-99.99,,2013-01-23 12:43:00,
2013-01-23 07:53:00,7.0,-6.0,30.15,WNW,299,10.0,14.0,61,-99.99,,,-99.99,,2013-01-23 12:53:00,
2013-01-23 08:00:00,8.0,-5.0,30.15,West,276,8.0,13.0,62,-99.99,,,-99.99,,2013-01-23 13:00:00,
2013-01-23 08:23:00,8.0,-5.0,30.15,West,276,8.0,13.0,62,-99.99,,,-99.99,,2013-01-23 13:23:00,
2013-01-23 08:34:00,8.0,-5.0,30.15,West,276,8.0,13.0,62,-99.99,,,-99.99,,2013-01-23 13:34:00,
2013-01-23 08:43:00,8.0,-5.0,30.15,West,276,8.0,13.0,62,-99.99,,,-99.99,,2013-01-23 13:43:00,
2013-01-23 08:53:00,8.0,-5.0,30.15,West,276,8.0,13.0,62,-99.99,,,-99.99,,2013-01-23 13:53:00,
2013-01-23 09:00:00,10.0,-4.0,30.15,NNW,329,7.0,18.0,58,-99.99,,,-99.99,,2013-01-23 14:00:00,
2013-01-23 09:24:00,10.0,-4.0,30.15,NNW,329,7.0,18.0,58,-99.99,,,-99.99,,2013-01-23 14:24:00,
2013-01-23 09:33:00,10.0,-4.0,30.15,NNW,329,7.0,18.0,58,-99.99,,,-99.99,,2013-01-23 14:33:00,
2013-01-23 09:43:00,10.0,-4.0,30.15,NNW,329,7.0,18.0,58,-99.99,,,-99.99,,2013-01-23 14:43:00,
2013-01-23 09:53:00,10.0,-4.0,30.15,NNW,329,7.0,18.0,58,-99.99,,,-99.99,,2013-01-23 14:53:00,
2013-01-23 10:00:00,11.0,-5.0,30.18,WNW,295,15.0,18.0,52,-99.99,,,-99.99,,2013-01-23 15:00:00,
2013-01-23 10:23:00,11.0,-5.0,30.18,WNW,295,15.0,18.0,52,-99.99,,,-99.99,,2013-01-23 15:23:00,
2013-01-23 10:33:00,11.0,-5.0,30.18,WNW,295,15.0,18.0,52,-99.99,,,-99.99,,2013-01-23 15:33:00,
2013-01-23 10:43:00,11.0,-5.0,30.18,WNW,295,15.0,18.0,52,-99.99,,,-99.99,,2013-01-23 15:43:00,
2013-01-23 10:53:00,11.0,-5.0,30.18,WNW,295,15.0,18.0,52,-99.99,,,-99.99,,2013-01-23 15:53:00,
2013-01-23 11:00:00,14.0,-6.0,30.15,West,279,21.0,23.0,43,-99.99,,,-99.99,,2013-01-23 16:00:00,
2013-01-23 11:23:00,14.0,-6.0,30.15,West,279,21.0,23.0,43,-99.99,,,-99.99,,2013-01-23 16:23:00,
2013-01-23 11:33:00,14.0,-6.0,30.15,West,279,21.0,23.0,43,-99.99,,,-99.99,,2013-01-23 16:33:00,
2013-01-23 11:43:00,14.0,-6.0,30.15,West,279,21.0,23.0,43,-99.99,,,-99.99,,2013-01-23 16:43:00,
2013-01-23 11:53:00,14.0,-6.0,30.15,West,279,21.0,23.0,43,-99.99,,,-99.99,,2013-01-23 16:53:00,
2013-01-23 12:00:00,13.0,-6.0,30.12,WNW,286,13.0,28.0,45,-99.99,,,-99.99,,2013-01-23 17:00:00,
2013-01-23 12:23:00,13.0,-6.0,30.12,WNW,286,13.0,28.0,45,-99.99,,,-99.99,,2013-01-23 17:23:00,
2013-01-23 12:34:00,13.0,-6.0,30.12,WNW,286,13.0,28.0,45,-99.99,,,-99.99,,2013-01-23 17:34:00,
2013-01-23 12:43:00,13.0,-6.0,30.12,WNW,286,13.0,28.0,45,-99.99,,,-99.99,,2013-01-23 17:43:00,
2013-01-23 12:53:00,13.0,-6.0,30.12,WNW,286,13.0,28.0,45,-99.99,,,-99.99,,2013-01-23 17:53:00,
2013-01-23 13:00:00,14.0,-7.0,30.09,WNW,289,14.0,23.0,42,-99.99,,,-99.99,,2013-01-23 18:00:00,
2013-01-23 13:33:00,14.0,-7.0,30.09,WNW,289,14.0,23.0,42,-99.99,,,-99.99,,2013-01-23 18:33:00,
2013-01-23 13:44:00,14.0,-7.0,30.09,WNW,289,14.0,23.0,42,-99.99,,,-99.99,,2013-01-23 18:44:00,
2013-01-23 13:53:00,14.0,-7.0,30.09,WNW,289,14.0,23.0,42,-99.99,,,-99.99,,2013-01-23 18:53:00,
2013-01-23 14:00:00,14.0,-7.0,30.09,West,276,14.0,23.0,41,-99.99,,,-99.99,,2013-01-23 19:00:00,
2013-01-23 14:23:00,14.0,-7.0,30.09,West,276,14.0,23.0,41,-99.99,,,-99.99,,2013-01-23 19:23:00,
2013-01-23 14:33:00,14.0,-7.0,30.09,West,276,14.0,23.0,41,-99.99,,,-99.99,,2013-01-23 19:33:00,
2013-01-23 14:43:00,14.0,-7.0,30.09,West,276,14.0,23.0,41,-99.99,,,-99.99,,2013-01-23 19:43:00,
2013-01-23 14:53:00,14.0,-7.0,30.09,West,276,14.0,23.0,41,-99.99,,,-99.99,,2013-01-23 19:53:00,
2013-01-23 15:00:00,14.0,-6.0,30.09,NW,306,5.0,20.0,44,-99.99,,,-99.99,,2013-01-23 20:00:00,
2013-01-23 15:23:00,14.0,-6.0,30.09,NW,306,5.0,20.0,44,-99.99,,,-99.99,,2013-01-23 20:23:00,
2013-01-23 15:33:00,14.0,-6.0,30.09,NW,306,5.0,20.0,44,-99.99,,,-99.99,,2013-01-23 20:33:00,
2013-01-23 15:43:00,14.0,-6.0,30.09,NW,306,5.0,20.0,44,-99.99,,,-99.99,,2013-01-23 20:43:00,
2013-01-23 15:54:00,14.0,-6.0,30.09,NW,306,5.0,20.0,44,-99.99,,,-99.99,,2013-01-23 20:54:00,
2013-01-23 16:00:00,14.0,-2.0,30.09,WNW,292,10.0,21.0,53,-99.99,,,-99.99,,2013-01-23 21:00:00,
2013-01-23 16:23:00,14.0,-2.0,30.09,WNW,292,10.0,21.0,53,-99.99,,,-99.99,,2013-01-23 21:23:00,
2013-01-23 16:34:00,14.0,-2.0,30.09,WNW,292,10.0,21.0,53,-99.99,,,-99.99,,2013-01-23 21:34:00,
2013-01-23 16:43:00,14.0,-2.0,30.09,WNW,292,10.0,21.0,53,-99.99,,,-99.99,,2013-01-23 21:43:00,
2013-01-23 16:53:00,14.0,-2.0,30.09,WNW,292,10.0,21.0,53,-99.99,,,-99.99,,2013-01-23 21:53:00,
2013-01-23 17:00:00,13.0,-4.0,30.09,NW,326,6.0,17.0,50,-99.99,,,-99.99,,2013-01-23 22:00:00,
2013-01-23 17:23:00,13.0,-4.0,30.09,NW,326,6.0,17.0,50,-99.99,,,-99.99,,2013-01-23 22:23:00,
2013-01-23 17:33:00,13.0,-4.0,30.09,NW,326,6.0,17.0,50,-99.99,,,-99.99,,2013-01-23 22:33:00,
2013-01-23 17:43:00,13.0,-4.0,30.09,NW,326,6.0,17.0,50,-99.99,,,-99.99,,2013-01-23 22:43:00,
2013-01-23 17:53:00,13.0,-4.0,30.09,NW,326,6.0,17.0,50,-99.99,,,-99.99,,2013-01-23 22:53:00,
2013-01-23 18:00:00,12.0,-3.0,30.09,West,281,7.0,11.0,56,-99.99,,,-99.99,,2013-01-23 23:00:00,
2013-01-23 18:23:00,12.0,-3.0,30.09,West,281,7.0,11.0,56,-99.99,,,-99.99,,2013-01-23 23:23:00,
2013-01-23 18:33:00,12.0,-3.0,30.09,West,281,7.0,11.0,56,-99.99,,,-99.99,,2013-01-23 23:33:00,
2013-01-23 18:43:00,12.0,-3.0,30.09,West,281,7.0,11.0,56,-99.99,,,-99.99,,2013-01-23 23:43:00,
2013-01-23 18:53:00,12.0,-3.0,30.09,West,281,7.0,11.0,56,-99.99,,,-99.99,,2013-01-23 23:53:00,
2013-01-23 19:00:00,11.0,-2.0,30.09,WNW,284,5.0,9.0,61,-99.99,,,-99.99,,2013-01-24 00:00:00,
2013-01-23 19:22:00,11.0,-2.0,30.09,WNW,284,5.0,9.0,61,-99.99,,,-99.99,,2013-01-24 00:22:00,
2013-01-23 19:33:00,11.0,-2.0,30.09,WNW,284,5.0,9.0,61,-99.99,,,-99.99,,2013-01-24 00:33:00,
2013-01-23 19:43:00,11.0,-2.0,30.09,WNW,284,5.0,9.0,61,-99.99,,,-99.99,,2013-01-24 00:43:00,
2013-01-23 19:53:00,11.0,-2.0,30.09,WNW,284,5.0,9.0,61,-99.99,,,-99.99,,2013-01-24 00:53:00,
2013-01-23 20:00:00,10.0,-2.0,30.09,WNW,296,5.0,9.0,62,-99.99,,,-99.99,,2013-01-24 01:00:00,
2013-01-23 20:23:00,10.0,-2.0,30.09,WNW,296,5.0,9.0,62,-99.99,,,-99.99,,2013-01-24 01:23:00,
2013-01-23 20:33:00,10.0,-2.0,30.09,WNW,296,5.0,9.0,62,-99.99,,,-99.99,,2013-01-24 01:33:00,
2013-01-23 20:43:00,10.0,-2.0,30.09,WNW,296,5.0,9.0,62,-99.99,,,-99.99,,2013-01-24 01:43:00,
2013-01-23 20:53:00,10.0,-2.0,30.09,WNW,296,5.0,9.0,62,-99.99,,,-99.99,,2013-01-24 01:53:00,
2013-01-23 21:00:00,9.0,-3.0,30.09,SSW,208,0.0,6.0,63,-99.99,,,-99.99,,2013-01-24 02:00:00,
2013-01-23 21:33:00,9.0,-3.0,30.09,SSW,208,0.0,6.0,63,-99.99,,,-99.99,,2013-01-24 02:33:00,
2013-01-23 21:43:00,9.0,-3.0,30.09,SSW,208,0.0,6.0,63,-99.99,,,-99.99,,2013-01-24 02:43:00,
2013-01-23 21:53:00,9.0,-3.0,30.09,SSW,208,0.0,6.0,63,-99.99,,,-99.99,,2013-01-24 02:53:00,
2013-01-23 22:00:00,9.0,-3.0,30.09,North,352,0.0,0.0,63,-99.99,,,-99.99,,2013-01-24 03:00:00,
2013-01-23 22:33:00,9.0,-3.0,30.09,North,352,0.0,0.0,63,-99.99,,,-99.99,,2013-01-24 03:33:00,
2013-01-23 22:43:00,9.0,-3.0,30.09,North,352,0.0,0.0,63,-99.99,,,-99.99,,2013-01-24 03:43:00,
2013-01-23 22:53:00,9.0,-3.0,30.09,North,352,0.0,0.0,63,-99.99,,,-99.99,,2013-01-24 03:53:00,
2013-01-23 23:00:00,9.0,-1.0,30.09,WSW,252,0.0,4.0,70,-99.99,,,-99.99,,2013-01-24 04:00:00,
2013-01-23 23:22:00,9.0,-1.0,30.09,WSW,252,0.0,4.0,70,-99.99,,,-99.99,,2013-01-24 04:22:00,
2013-01-23 23:33:00,9.0,-1.0,30.09,WSW,252,0.0,4.0,70,-99.99,,,-99.99,,2013-01-24 04:33:00,
2013-01-23 23:43:00,9.0,-1.0,30.09,WSW,252,0.0,4.0,70,-99.99,,,-99.99,,2013-01-24 04:43:00,
2013-01-23 23:53:00,9.0,-1.0,30.09,WSW,252,0.0,4.0,70,-99.99,,,-99.99,,2013-01-24 04:53:00,